sat.trackr.live / text

‹ back to catalog

YAOGAN-34 02

NORAD 52084 · 2022-027A

PAYLOAD ACTIVE UNKNOWN

§ Identity

Operator
Country
PRC
Launch date
2022-03-17
Launch site
JSC
Launch vehicle
Mass (kg)
RCS (m²)

External: N2YO · Heavens-Above · Gunter

§ Orbital elements

Epoch: 2026-09-20T23:27:15.316704Z

Period
107.03 min
Inclination
63.3962°
Eccentricity
0.0060347
Mean motion
13.45440344 rev/d
Perigee alt
1,044.0 km
Apogee alt
1,134.1 km
Semi-major
7,467.2 km
B*
1.5081e-5
RAAN
315.0156°
Arg perigee
354.9782°
Mean anomaly
5.0632°
Rev number
22,180

§ Raw data

YAOGAN-34 021 52084U 22027A   26263.97726061 -.00000081  00000+0  15081-4 0  99972 52084  63.3962 315.0156 0060347 354.9782   5.0632 13.45440344221800

JSON: /api/v1/satellites/52084 · /tle

For live sub-satellite position, see the globe view (requires WebGL).

§ Visibility from observer

Set your observer location to see the next 7 days of passes ≥ 10°. The values pass through the URL so the page stays shareable.

No JS? Fill the form by hand. The geolocation button needs JavaScript.